Ana Sayfa
METAR-TAF:

METAR-TAF

Havaalanları :

De Queen, Arkansas, Amerika Birleşik Devletleri

Enlem: 34-02-49N, Boylam: 094-23-58W, yükseklik: 108 m

Güncel hava durumu gözlemi

Rapor saat 04:53 UTC de 42 dakika önce yapıldı.
Sakin rüzgar
Sıcaklık 19°C
Nem 100%
Basınç 1013 hPa
Görüş mesafesi: 9.7 km
Açık gökyüzü
Pus

METAR: KDEQ 190453Z AUTO 00000KT 6SM BR CLR 19/19 A2992 RMK AO2 SLP128 T01940189

Saat: 00:35 (05:35 UTC)


TAF: eksik

4.000'den fazla havaalanı için hava durumu gözlemleri ve tahminleri (METAR ve TAF raporları).

Kullanılabilir istasyonlar harita üzerinde sarı ve kırmızı noktalarla gösterilir.

İstasyonun adını görmek için fareyi noktanın üzerinde gezdirin.

Sonrasında hava gözlem ve tahminlerini görmek için tıklayın.

Haritayı değiştirmek için: yaklaştırmak için siyah artı işaretli yeşil düğmeye ve uzaklaştırmak için de eksi işaretli düğmeye hızla tıklayın; bitişik haritalar için yeşil okları kullanın.


METAR-TAF: